Theta_e
335 335 337 332 325 328 329 331 333 334 335 335 336 338 339 341 343 344 344 345 346 345 345 346 348 348 348 348 349 350 351 351 352 352 352 351 351 350 350 351 352 353 353 353 354 355 356 358 357 358 359 359 359 359 359 361 362 363 362 363 360 360 357
335 336 337 338 328 326 328 330 333 334 335 336 336 338 339 341 343 344 344 345 345 345 345 345 348 348 348 349 349 350 350 350 353 356 354 354 355 352 351 351 352 352 353 354 355 356 358 358 358 357 358 360 360 359 359 360 361 360 360 360 360 358 359
334 335 336 336 336 333 327 329 332 334 335 336 337 337 339 340 343 344 344 345 345 345 346 345 347 347 348 349 349 349 350 350 352 354 353 352 353 352 352 353 353 353 354 354 356 356 359 358 359 358 358 358 359 360 360 360 361 361 361 360 361 360 358
334 335 335 336 337 338 338 334 331 334 335 337 337 337 338 341 343 344 345 345 344 345 344 345 346 347 348 348 349 349 349 350 352 353 354 354 354 354 352 353 355 355 354 354 356 357 359 359 359 358 362 359 359 360 361 361 361 362 361 361 360 360 360
335 336 335 336 336 338 338 338 337 333 334 337 338 340 339 341 342 343 345 346 345 345 345 345 346 348 349 349 349 350 350 350 351 353 354 355 356 355 353 352 354 355 355 355 357 359 359 359 358 358 359 360 359 359 361 361 361 362 362 362 361 360 360
333 333 335 335 336 337 340 342 345 343 334 334 336 338 339 341 342 342 343 346 346 346 347 347 346 348 347 348 349 350 350 350 352 354 354 354 355 355 354 353 354 356 355 356 358 358 357 358 358 358 357 358 359 359 359 361 362 362 362 361 362 361 360
331 332 333 334 335 336 338 340 345 343 342 338 338 340 341 341 342 342 343 345 346 345 346 346 346 347 348 349 349 350 349 349 349 352 354 354 354 355 355 355 356 356 357 358 357 358 357 357 358 358 358 358 359 359 360 360 361 362 362 361 361 361 361
332 332 333 333 334 336 337 340 342 342 343 344 341 340 339 341 343 343 343 345 347 347 347 347 346 347 348 350 350 349 349 349 349 351 353 353 354 355 355 355 356 357 358 356 357 358 357 358 358 358 358 357 358 359 359 360 361 361 362 361 360 360 360
331 332 333 333 334 335 337 338 341 342 342 343 343 342 340 343 343 344 345 346 348 347 348 350 349 349 349 350 350 350 351 350 350 350 351 352 352 353 354 355 356 357 357 356 357 358 358 358 358 358 358 358 358 358 359 360 359 360 361 361 360 360 360
329 330 331 332 334 335 337 338 340 340 340 342 342 343 343 344 345 346 347 348 349 348 350 351 352 352 351 350 350 351 351 351 351 351 351 351 351 351 353 354 354 356 356 356 356 356 357 358 358 358 358 357 358 358 358 358 359 360 360 360 360 360 360
328 330 330 331 332 334 336 338 338 338 339 340 341 342 344 345 346 346 347 348 348 348 350 350 351 352 352 352 351 351 351 351 352 351 351 351 351 351 352 353 353 354 354 354 354 354 355 356 357 357 357 356 357 357 357 358 358 359 359 360 361 361 360
326 327 328 330 331 333 334 335 337 337 338 339 340 341 342 344 345 346 347 347 348 347 348 349 350 351 351 352 351 350 350 351 351 351 351 352 352 352 352 352 352 351 353 353 353 353 353 353 354 355 356 357 358 358 358 358 358 359 359 359 360 360 360
326 327 329 330 331 332 333 333 334 335 337 340 341 341 342 343 343 345 345 346 347 347 346 347 347 346 348 350 351 350 350 350 350 352 351 352 352 352 352 352 351 351 351 353 352 351 350 350 352 354 355 356 356 357 357 358 357 358 359 359 360 360 360
327 327 328 329 330 331 331 332 333 335 337 338 340 342 343 343 343 343 344 344 346 346 346 346 346 345 343 344 347 347 349 350 350 351 350 351 352 352 352 351 351 351 351 352 351 351 350 350 349 350 353 354 355 356 357 357 357 357 358 358 358 358 359
324 326 327 327 328 330 331 332 333 334 336 338 339 340 341 342 343 344 342 342 343 345 346 348 347 346 346 346 347 346 347 348 349 351 354 352 350 351 350 350 349 348 348 349 349 348 348 349 349 349 350 352 354 355 355 355 355 356 356 356 357 358 357
324 325 326 327 327 328 330 331 332 333 335 336 336 337 338 340 342 343 342 342 343 345 346 348 349 348 347 347 347 348 348 349 350 350 350 349 348 348 348 348 349 348 346 347 348 349 351 349 348 347 347 349 351 353 353 354 355 356 348 350 357 356 356
322 321 321 321 321 324 327 330 331 332 333 334 334 334 334 335 337 340 343 345 346 346 347 348 346 347 348 347 348 348 348 348 348 348 347 346 346 346 346 346 348 347 346 345 346 348 351 350 348 346 345 345 347 349 350 353 354 347 337 336 340 355 356
318 318 319 321 323 325 328 329 330 330 330 330 330 331 331 332 334 336 336 338 341 343 345 345 345 344 345 347 347 347 347 347 347 347 346 345 345 346 347 348 347 347 347 348 347 349 350 349 350 349 348 347 347 346 348 351 350 337 334 334 332 341 355
316 318 319 322 324 325 326 326 327 327 327 327 327 329 331 332 331 331 332 332 334 337 337 339 340 340 341 343 344 345 345 346 346 346 347 347 346 346 346 346 347 348 349 349 351 350 350 350 350 351 351 349 348 349 349 349 343 333 332 330 329 330 342
316 317 319 321 323 323 324 324 324 325 326 326 326 327 328 330 330 331 333 333 333 332 332 331 332 334 336 339 342 343 344 345 346 346 346 347 347 346 347 347 346 346 347 348 349 348 349 348 348 350 351 352 352 352 352 353 342 327 326 324 323 325 332
314 316 318 320 321 322 322 322 323 324 325 325 327 327 326 326 327 328 330 331 331 332 330 330 330 330 331 332 332 336 341 344 344 344 343 343 343 343 341 341 341 341 343 343 343 343 345 346 346 348 348 348 351 352 351 349 330 327 325 322 320 321 329
315 317 319 320 320 320 321 321 322 322 323 326 325 326 326 326 327 326 327 328 327 328 328 328 328 329 330 331 332 333 335 340 340 339 339 339 340 340 340 340 340 340 343 342 342 344 346 346 347 346 346 348 347 347 347 344 325 323 322 321 320 325 339
317 318 318 319 319 319 321 323 323 324 325 324 324 325 325 326 326 325 325 326 326 327 326 326 326 326 328 329 330 332 333 336 340 340 339 340 340 340 340 340 340 342 342 340 341 342 343 344 345 346 347 347 347 347 346 343 330 320 318 319 320 331 340
317 317 318 318 319 319 320 321 322 324 322 322 322 323 323 322 322 322 322 322 323 324 325 325 325 326 326 326 328 330 331 332 334 338 341 340 339 339 340 342 341 341 342 341 341 341 342 343 342 342 343 343 343 345 342 341 333 318 316 317 319 332 341
316 316 316 317 317 316 317 318 319 320 320 320 319 321 323 322 321 320 320 320 320 321 321 322 324 325 325 325 327 328 331 332 333 333 334 335 337 339 339 341 341 342 342 341 342 342 342 340 337 337 338 340 340 343 341 340 336 318 316 315 317 333 343
314 314 315 316 316 317 318 320 318 317 317 317 318 320 320 320 321 322 318 318 319 318 319 321 322 324 326 325 327 330 332 332 334 333 332 332 333 335 336 339 338 338 338 338 337 337 338 338 336 334 335 337 337 337 340 340 336 326 314 313 315 320 342
314 315 314 315 316 320 314 314 314 314 314 315 318 319 319 318 317 318 319 318 316 317 318 320 323 325 326 325 325 327 329 330 331 330 331 331 330 331 331 331 332 333 332 333 332 333 332 333 334 333 333 334 335 335 336 340 337 327 313 312 313 317 329
313 313 316 319 319 315 313 312 313 313 313 314 316 318 318 318 318 317 317 317 316 317 318 321 322 324 325 325 326 326 327 328 329 330 329 331 330 328 327 329 330 330 330 329 328 327 327 328 330 330 331 332 333 334 333 337 339 335 319 313 311 311 314
312 312 313 312 313 315 314 312 312 312 313 314 315 317 319 319 318 318 317 316 317 318 319 321 322 324 324 325 325 327 326 326 327 328 328 328 329 327 326 327 327 327 327 326 325 324 323 324 324 324 325 326 327 330 331 333 336 332 332 318 309 308 311
312 311 311 312 313 313 314 312 312 312 313 314 315 316 318 319 319 319 317 315 318 319 320 320 322 323 323 325 323 324 326 326 326 326 327 328 327 327 325 325 325 325 325 323 322 320 320 322 323 323 322 322 323 324 326 329 331 334 330 328 316 310 308
311 312 312 312 313 314 313 311 311 312 312 313 315 315 315 317 318 318 315 315 319 320 319 321 325 323 321 321 321 323 322 322 323 324 325 325 326 326 326 325 324 321 322 322 320 320 320 321 322 321 322 321 321 322 324 327 329 327 328 327 326 316 311
310 311 311 312 312 312 311 311 312 312 312 312 314 314 315 314 314 314 314 316 318 320 321 323 324 323 321 322 322 321 322 320 320 321 322 324 325 325 324 324 324 322 320 319 320 321 321 321 321 320 320 320 320 321 323 325 325 323 323 327 326 323 316
309 310 310 310 312 312 310 311 311 312 312 311 312 312 312 312 312 313 314 315 317 320 323 323 322 322 321 321 322 323 323 320 319 319 321 321 321 322 323 322 321 321 321 319 318 319 321 320 321 319 319 319 318 320 322 323 323 320 320 320 320 320 320
308 309 310 311 311 311 310 310 311 311 311 311 310 311 311 311 311 311 312 313 315 319 322 322 321 319 320 321 322 322 322 324 326 321 319 320 319 318 318 320 320 320 319 319 318 318 317 318 319 318 317 317 318 320 320 320 321 318 314 316 315 315 316
309 309 309 309 310 311 309 311 311 311 312 310 310 310 310 310 310 311 311 312 313 317 319 319 320 320 320 320 320 320 321 319 319 319 318 318 319 319 318 317 317 318 319 321 321 320 318 318 318 318 316 318 318 318 318 319 319 317 306 309 303 306 310
309 309 309 309 310 309 311 312 311 311 311 309 310 310 309 309 309 310 311 312 312 314 317 318 316 316 317 318 318 318 317 316 316 316 317 317 317 318 318 318 310 313 318 318 317 310 305 308 316 316 317 318 319 320 318 317 317 305 297 296 296 296 297
308 308 308 309 308 309 309 310 312 312 311 310 311 310 310 309 309 309 310 311 312 312 313 315 315 313 314 316 315 315 314 314 314 314 314 315 316 316 316 316 317 304 303 308 311 305 298 299 300 301 306 319 319 318 308 305 300 297 296 296 295 295 295
309 309 309 309 309 309 310 311 311 310 310 309 310 309 309 309 308 308 309 311 311 312 313 313 313 311 311 312 313 314 313 312 313 314 314 313 314 315 315 314 314 316 308 303 304 304 300 297 297 298 297 299 304 315 318 309 299 295 296 296 296 296 295
Wind_Speed
7 6 4 5 7 10 11 11 12 11 11 11 11 11 10 9 9 8 9 9 10 9 8 9 9 8 9 7 7 6 6 6 6 6 6 6 6 7 7 6 6 6 5 5 6 6 5 4 5 5 5 5 5 5 5 4 4 3 3 3 3 3 3
6 6 5 3 3 7 9 10 11 10 10 11 10 10 9 10 9 9 9 10 11 11 10 9 9 8 8 7 6 6 6 6 6 5 5 4 4 5 6 7 7 7 6 6 6 5 4 5 5 5 5 4 5 4 4 4 4 4 4 4 4 3 3
9 8 7 6 6 5 5 7 9 10 11 10 9 9 10 11 11 12 10 10 10 9 8 9 9 9 7 7 7 7 7 6 6 6 6 6 6 6 5 6 6 6 6 5 5 5 5 5 5 5 5 5 4 4 4 4 4 4 4 4 4 4 4
7 9 8 8 7 6 6 5 5 8 9 10 11 12 12 11 11 10 10 11 12 10 10 9 9 9 8 8 8 7 7 7 7 7 6 6 6 5 5 5 5 4 4 6 5 5 4 5 5 5 5 5 5 4 4 4 4 4 4 4 3 4 4
5 6 6 6 6 6 5 4 6 6 7 8 9 9 10 9 9 8 8 9 10 12 12 12 8 8 6 7 6 6 7 8 6 6 6 5 5 4 5 5 5 5 6 4 5 5 5 5 5 5 5 5 4 4 4 4 4 3 3 3 3 3 3
6 5 5 5 6 6 5 4 5 2 6 7 8 9 9 9 8 9 8 8 8 6 4 5 7 7 8 8 7 7 6 6 6 6 6 6 5 5 5 5 5 5 5 6 5 5 5 5 5 5 5 4 4 4 4 4 4 3 3 3 3 3 3
7 6 5 4 4 5 6 5 5 5 3 6 6 5 6 8 10 9 8 8 8 8 8 8 7 7 6 6 6 6 8 7 7 7 5 5 6 6 5 4 4 5 5 3 5 5 5 5 5 5 5 5 4 5 4 5 4 4 4 3 4 3 3
8 8 7 6 6 6 6 6 6 4 4 4 7 8 9 7 6 7 8 7 7 7 8 8 7 8 7 6 6 6 6 6 6 6 5 6 5 5 5 4 4 4 3 5 5 5 5 5 4 4 5 4 5 5 5 5 5 4 4 4 5 4 3
10 9 9 8 7 6 6 5 5 5 6 5 7 8 9 8 9 8 7 7 7 8 8 8 8 7 7 7 7 7 6 6 6 6 6 6 5 6 5 5 5 4 5 5 4 4 5 5 5 5 5 5 5 5 5 5 5 4 4 4 5 5 4
10 9 9 10 9 8 7 6 4 3 4 5 4 4 6 8 8 9 8 8 8 8 8 7 7 7 7 7 7 7 7 7 6 7 6 7 6 7 6 5 5 5 5 5 4 4 4 5 5 5 5 5 5 5 5 5 4 4 4 5 5 5 5
9 8 7 8 9 9 9 9 8 7 6 6 6 4 3 5 8 9 9 9 9 8 7 6 6 6 6 7 7 7 7 7 6 7 7 6 5 6 6 6 5 5 6 5 5 5 4 4 4 5 5 5 6 6 6 6 6 5 5 5 5 5 5
8 6 5 6 8 9 10 8 6 4 4 4 5 7 7 5 2 3 6 8 9 9 7 5 3 4 6 5 6 7 8 8 7 7 8 7 6 6 5 5 6 6 5 6 6 5 5 5 4 5 6 6 6 6 7 6 6 6 6 6 5 5 5
7 7 7 6 5 6 6 6 6 5 5 6 6 4 3 5 8 7 7 8 7 9 10 10 9 4 2 2 5 7 8 7 7 6 6 6 5 4 5 6 6 5 6 5 6 6 5 5 5 5 5 6 6 6 7 7 6 6 7 6 6 6 6
10 8 6 5 5 4 5 6 7 7 6 5 5 5 4 3 3 3 2 4 4 4 3 1 4 9 10 7 4 5 4 4 4 4 4 4 4 5 5 4 5 5 5 4 5 5 6 6 7 6 6 6 6 6 5 6 5 6 6 6 6 6 6
10 9 7 6 5 4 4 5 6 7 8 7 5 5 5 4 4 4 4 4 1 3 4 3 2 1 4 5 4 4 3 3 4 4 4 4 4 5 5 4 2 1 2 3 3 1 2 3 3 4 5 6 7 7 6 5 6 5 5 6 7 6 7
11 9 7 6 5 5 5 6 7 7 7 6 6 5 5 4 4 6 6 6 5 4 4 4 4 5 5 4 5 4 4 4 4 4 4 4 4 3 3 4 4 4 3 3 3 2 2 2 1 2 4 5 5 5 5 5 5 7 12 10 6 6 6
10 8 6 5 5 6 7 8 8 7 7 8 7 5 5 5 5 6 6 6 7 7 6 6 5 4 5 7 6 6 5 5 5 5 4 4 4 3 3 3 3 4 4 3 3 3 3 3 4 3 1 2 3 4 5 5 5 10 11 12 12 7 6
9 8 7 7 7 7 8 8 8 8 8 8 7 6 6 5 5 6 7 7 6 4 6 7 7 6 5 6 6 6 6 5 5 5 5 5 4 4 3 3 4 4 4 3 2 2 1 3 3 2 2 0 1 3 4 5 7 9 8 9 10 9 6
9 8 8 7 8 8 8 8 9 9 8 7 6 6 5 5 7 8 7 9 8 8 8 8 7 7 7 6 6 6 5 5 6 6 6 4 4 4 4 4 4 4 4 4 3 2 2 2 3 4 3 3 2 1 1 2 4 7 8 8 9 10 8
10 9 9 8 8 8 7 7 8 8 7 7 7 8 7 8 8 7 7 7 8 11 10 10 9 9 8 7 6 5 5 5 5 7 7 7 6 6 6 6 6 5 5 5 5 5 5 4 3 4 4 4 4 3 3 3 5 7 8 8 7 5 7
10 9 10 10 9 9 8 8 8 8 8 8 7 6 7 8 8 8 8 9 10 9 10 10 10 9 7 7 7 7 7 6 7 7 7 7 7 7 6 6 5 6 5 5 6 7 7 6 6 5 4 5 5 4 5 7 12 10 8 7 7 5 3
10 10 10 9 10 9 9 9 9 8 7 6 7 7 7 7 6 9 8 9 10 9 9 9 10 8 7 7 6 7 8 7 7 7 7 7 6 6 5 5 4 4 4 5 5 4 4 5 5 6 7 6 5 5 6 8 15 13 12 10 7 4 2
10 9 9 8 8 7 6 8 10 8 7 8 7 7 7 5 6 8 9 10 8 8 9 10 9 7 6 7 7 7 7 6 5 5 6 5 6 5 5 4 5 5 3 4 4 4 5 6 5 5 6 7 8 8 7 7 11 13 11 11 9 4 3
9 9 9 9 8 7 7 8 8 8 9 9 8 6 7 7 7 8 9 8 8 10 10 10 8 6 5 6 6 6 7 7 6 5 4 4 4 4 4 3 3 5 4 5 6 8 8 6 7 8 8 9 9 9 7 8 12 12 11 11 10 6 4
9 8 9 9 10 9 8 8 9 7 8 9 9 7 8 9 10 9 8 8 8 8 8 7 6 7 7 6 5 6 7 8 8 7 8 8 7 6 7 7 6 5 5 5 6 7 7 8 7 7 8 8 9 13 10 8 9 12 11 12 11 7 4
11 10 9 8 8 8 8 7 10 11 10 9 7 5 7 9 10 9 9 8 8 10 8 7 6 4 3 5 6 8 9 8 10 8 8 8 8 8 7 7 7 8 8 7 6 6 6 6 7 8 8 7 8 8 8 7 6 9 13 13 14 12 6
9 9 11 10 9 8 9 8 10 9 8 6 5 6 6 8 10 9 7 8 10 9 7 6 5 5 6 7 7 8 8 6 8 8 7 7 7 7 8 7 8 7 6 5 6 7 8 9 7 8 8 7 7 7 7 5 4 7 12 14 15 15 10
9 8 7 7 9 9 10 9 9 9 8 6 6 6 7 9 9 7 7 9 9 7 6 5 6 6 7 8 7 7 7 7 7 6 6 6 6 8 8 6 6 6 6 7 8 10 10 9 8 7 7 6 6 7 6 7 10 5 10 13 14 13 13
12 11 9 9 8 7 9 9 8 8 7 5 6 6 6 9 9 6 6 8 6 5 5 5 5 6 7 7 7 6 6 7 7 6 4 6 6 8 7 6 7 7 7 8 9 9 10 9 7 6 5 5 5 5 6 6 6 8 7 10 12 12 11
8 8 9 7 7 8 10 10 7 8 7 6 6 6 6 8 8 7 8 7 4 4 3 4 5 6 7 5 5 6 6 5 6 6 6 6 6 7 8 7 7 7 7 7 7 7 7 6 6 5 5 5 4 5 5 5 5 7 12 10 12 11 11
12 11 11 10 8 7 8 10 10 8 8 7 8 6 6 6 8 8 8 5 5 5 4 5 5 6 6 5 5 6 5 6 6 6 6 6 7 7 6 7 7 8 7 7 7 7 6 5 5 5 4 5 5 5 6 6 7 8 10 13 11 10 11
8 8 9 9 8 8 8 8 8 9 9 8 7 7 7 7 7 8 3 3 4 4 4 5 6 6 6 5 5 5 6 7 7 7 7 6 6 6 5 6 6 6 6 6 6 5 5 5 5 5 4 4 4 5 5 5 5 6 6 7 8 7 10
8 9 10 10 8 9 9 9 8 8 8 8 6 6 6 8 7 5 3 5 4 4 6 7 7 6 6 7 6 5 5 7 5 5 6 6 6 5 5 5 5 6 5 5 5 5 5 5 5 4 4 5 5 4 4 5 5 5 4 5 5 5 6
11 9 7 8 7 8 8 8 9 8 8 7 5 6 6 6 6 6 6 5 5 5 7 8 8 7 7 7 6 6 6 6 11 8 5 5 5 5 5 5 4 5 5 4 4 5 5 4 5 5 4 4 4 4 5 5 4 4 4 4 5 4 4
11 12 10 9 7 8 9 8 8 8 8 6 5 6 7 7 6 6 7 6 5 6 8 7 8 7 8 7 7 7 7 6 6 5 5 5 5 5 5 4 4 4 4 3 3 3 4 5 4 4 2 2 3 4 5 5 5 4 3 2 3 3 4
9 11 8 7 7 7 8 8 9 8 7 6 5 6 7 7 6 6 6 6 6 7 7 7 7 9 8 7 7 6 6 6 6 5 5 5 4 4 5 7 5 4 4 3 5 6 4 3 4 2 1 3 3 3 4 3 2 5 6 5 3 2 2
10 9 9 8 8 8 8 8 7 7 7 6 5 6 6 5 5 6 6 7 7 8 7 6 7 6 6 6 7 7 6 5 5 5 4 4 4 4 4 4 5 6 6 5 4 7 7 4 5 6 6 4 4 4 6 5 2 2 4 5 5 6 7
5 8 9 8 9 9 9 8 7 8 8 6 6 6 5 5 5 5 4 5 7 7 7 7 6 7 6 5 6 7 6 5 5 5 5 4 4 4 4 4 3 4 7 9 8 9 10 10 7 7 8 8 6 4 1 4 7 7 7 7 7 7 7
Wind_Direction
124 137 142 168 181 180 180 180 179 175 177 183 185 185 180 181 182 178 180 181 189 184 184 178 180 177 182 184 185 184 187 183 184 187 188 190 185 178 179 185 182 192 187 191 200 204 207 188 189 196 193 199 197 194 195 192 197 195 194 196 193 198 208
131 128 113 88 183 192 185 183 179 176 181 182 183 183 181 180 178 184 188 187 190 188 184 184 180 184 183 184 176 179 186 189 188 190 189 188 185 184 185 183 188 192 193 199 197 198 182 194 186 188 193 198 206 198 197 201 203 201 199 197 200 205 193
146 131 117 120 126 170 195 187 183 183 182 179 176 178 184 183 185 189 185 186 193 193 186 186 186 182 181 176 174 184 187 188 190 188 184 188 191 188 188 186 192 188 194 184 185 188 185 180 187 187 186 193 201 198 200 207 213 209 207 200 206 208 201
150 136 141 147 145 131 134 155 192 192 184 180 180 183 185 187 187 188 187 187 187 186 188 194 186 183 181 180 182 181 186 192 193 192 193 190 190 182 176 193 191 183 176 192 186 182 184 175 182 182 191 186 199 202 198 206 214 216 220 206 219 219 219
109 122 125 129 110 85 83 120 162 186 191 183 181 184 187 183 178 183 193 194 190 190 192 189 187 185 183 183 183 181 187 184 191 197 194 192 185 171 183 195 191 197 203 180 174 177 179 176 182 177 186 182 197 198 206 205 213 215 222 212 226 230 238
117 117 120 119 113 107 104 82 46 95 169 173 179 180 181 175 175 185 189 186 194 194 187 180 189 183 186 190 184 179 175 186 187 188 188 186 177 182 195 202 193 202 193 198 177 183 179 184 187 181 184 192 194 201 205 209 210 203 210 210 227 233 237
112 96 82 70 73 75 72 65 71 68 103 161 163 171 171 177 183 183 177 185 183 180 178 188 192 184 191 177 189 177 183 184 185 192 185 176 178 184 200 203 200 203 216 170 192 174 177 188 195 188 189 193 197 200 202 204 212 196 187 193 219 227 240
107 101 91 87 81 82 77 83 91 87 80 118 151 166 170 175 165 169 178 178 175 172 183 184 186 190 177 175 178 185 186 185 183 186 187 185 180 187 191 199 204 208 194 205 208 183 190 190 194 191 187 195 200 199 202 204 212 207 191 199 206 223 215
106 109 113 115 111 98 98 110 120 127 122 123 145 160 168 165 169 173 171 167 174 178 186 180 186 187 178 175 175 185 181 174 181 185 192 194 189 193 189 190 195 190 200 218 215 202 203 199 196 195 190 199 207 203 204 208 213 207 204 210 211 217 219
124 121 121 123 122 122 124 123 119 114 98 68 49 98 147 165 168 164 164 170 168 172 171 171 175 178 182 179 183 182 174 183 182 182 188 199 202 200 195 187 187 181 195 210 214 209 218 211 206 200 200 204 210 208 211 209 214 211 212 218 220 222 226
119 118 121 125 126 131 135 142 157 166 147 127 120 101 141 172 170 166 166 161 157 152 149 150 152 165 182 183 183 181 183 188 182 186 193 203 202 212 199 196 189 183 194 196 207 211 205 219 213 213 206 213 216 216 212 214 210 211 214 217 216 222 228
114 109 111 121 129 137 148 155 147 123 113 138 149 164 166 146 92 137 154 156 149 141 132 116 105 150 159 174 187 191 191 191 190 195 196 197 199 203 205 203 202 194 193 192 201 201 205 210 210 212 218 220 223 219 222 216 210 211 219 219 216 215 222
115 118 123 121 125 134 139 145 142 133 129 144 151 152 149 142 146 160 167 160 161 152 148 149 139 117 16 323 215 193 197 195 198 198 198 196 198 198 195 200 204 204 203 192 198 193 200 199 203 212 215 226 225 224 218 218 212 214 214 218 219 220 223
115 111 107 102 111 116 118 118 117 117 121 118 122 128 128 133 133 130 124 130 99 83 69 6 170 159 155 181 254 283 227 169 142 154 160 161 170 187 202 205 207 209 213 205 210 211 207 201 200 204 201 212 217 224 224 222 217 212 213 215 215 219 226
125 124 121 118 113 108 109 102 84 75 76 87 103 121 116 106 106 91 88 104 48 53 90 101 301 228 154 170 184 188 169 144 148 153 167 168 166 176 177 175 162 131 130 151 166 185 233 227 221 215 216 221 220 218 213 214 219 211 208 210 214 213 225
126 128 129 125 115 103 94 82 74 69 71 78 82 76 80 98 139 152 163 182 181 163 140 137 184 166 152 158 164 153 145 148 149 149 156 154 157 139 122 126 130 133 130 107 106 90 48 18 360 216 225 232 232 228 219 221 217 219 215 213 213 210 222
126 127 120 94 76 70 68 76 72 67 69 74 74 73 60 71 78 117 144 159 170 168 151 145 162 148 145 143 141 137 140 147 152 150 146 133 117 119 125 137 133 127 120 114 103 94 66 55 38 16 295 230 241 241 240 243 235 229 221 219 222 221 212
122 119 111 103 94 86 85 83 80 72 67 67 69 66 69 46 41 56 61 76 80 98 112 121 133 136 133 123 122 127 135 143 145 142 138 137 143 143 127 90 81 80 82 83 71 79 92 84 78 60 11 267 177 213 230 246 260 261 250 235 228 224 229
118 113 106 107 107 100 94 89 83 82 78 79 70 59 45 69 65 56 47 60 63 62 61 72 78 77 67 74 89 101 109 114 117 119 123 129 123 108 99 94 87 81 79 80 89 95 65 54 80 73 64 41 24 22 317 305 339 337 308 271 241 223 220
118 115 107 100 98 98 94 88 86 81 79 74 72 75 73 69 71 66 63 64 63 69 68 64 53 52 49 51 49 53 58 72 91 95 99 109 111 105 97 84 75 64 61 67 66 68 62 47 35 39 51 50 42 34 39 56 31 15 360 354 331 277 215
123 123 119 119 113 102 93 90 83 79 71 62 59 51 62 65 72 71 67 66 58 58 66 67 63 58 59 57 55 50 51 47 44 59 59 64 72 74 72 82 81 74 66 61 59 55 50 46 46 39 31 29 32 46 47 39 18 36 37 24 9 3 217
132 128 124 123 116 106 106 98 87 79 67 59 60 54 49 52 61 71 61 65 73 68 69 65 67 56 47 47 44 69 69 54 68 70 69 62 56 63 68 66 70 80 78 84 74 67 65 53 57 54 50 44 40 34 39 35 24 17 19 27 26 28 94
129 118 110 97 89 93 98 101 96 90 79 67 54 53 48 46 56 64 63 59 57 62 63 62 60 59 51 50 40 37 54 70 61 72 74 86 91 82 70 57 64 71 79 92 101 101 80 66 46 42 52 53 44 50 49 37 21 22 23 24 24 34 63
98 102 101 99 94 91 87 85 85 80 86 78 61 54 60 55 58 60 60 58 54 53 52 50 45 35 41 51 53 53 61 58 59 55 59 57 56 69 79 90 75 62 45 64 76 70 63 57 52 38 39 42 43 44 51 36 24 27 30 41 38 51 51
110 110 112 113 118 110 99 89 84 75 72 71 67 50 67 67 62 58 51 45 48 54 53 41 25 18 20 22 35 61 67 72 60 53 57 57 54 48 56 55 55 55 55 59 67 70 69 64 58 53 43 41 37 32 35 40 32 27 31 35 39 54 63
130 126 117 112 95 99 99 98 87 70 64 63 62 60 65 69 65 59 52 38 41 40 35 22 4 333 345 35 43 56 50 62 73 60 58 59 54 56 53 55 57 53 58 54 52 62 66 70 66 59 48 44 44 35 20 33 40 25 22 28 27 26 48
121 127 130 123 119 110 93 82 87 87 80 71 67 65 67 72 68 56 50 46 45 33 11 351 352 10 34 43 49 58 70 54 74 78 67 65 72 66 56 51 60 62 64 76 73 66 54 51 52 54 47 36 35 31 16 28 53 38 33 31 28 23 27
120 106 95 103 114 107 102 98 94 89 73 56 66 69 79 82 77 64 53 49 35 359 333 350 11 26 48 49 50 55 59 73 72 71 74 68 67 70 66 57 63 62 56 45 46 52 54 50 43 41 37 28 29 23 1 6 38 44 39 36 33 27 19
136 131 124 114 98 94 102 92 81 73 72 53 50 57 72 85 83 75 62 52 7 329 337 358 22 42 59 54 47 49 55 60 65 65 65 67 66 75 69 61 60 54 51 52 50 47 46 44 44 43 38 28 25 14 8 354 19 46 43 37 36 27 23
116 115 110 96 101 113 103 98 92 85 72 66 61 55 55 80 82 71 61 34 327 346 354 21 35 61 63 60 64 62 54 54 55 54 58 66 70 68 67 60 62 58 53 54 56 59 57 50 48 44 41 28 16 19 12 9 10 35 32 24 26 21 12
140 136 123 117 115 106 98 107 102 92 74 62 68 66 63 68 84 71 54 357 3 12 21 28 46 58 57 60 64 74 69 58 54 56 52 46 63 70 63 56 53 56 43 51 50 50 55 53 54 52 42 26 22 14 22 17 23 19 15 15 13 8 2
109 109 109 111 108 102 102 98 94 92 85 61 61 68 66 57 67 71 41 345 20 23 38 63 63 58 51 57 61 73 86 80 66 54 48 54 55 66 58 63 56 60 45 50 55 54 53 42 41 40 41 41 27 22 23 28 29 18 10 9 0 359 354
124 129 131 124 125 118 107 105 98 94 88 79 50 69 70 71 65 73 51 40 15 33 66 73 69 64 53 53 66 73 82 87 72 65 57 55 58 58 60 57 59 61 59 54 52 47 46 39 38 32 34 41 29 23 42 50 47 28 12 2 355 357 350
133 126 123 123 125 111 107 106 109 104 97 86 71 71 69 65 63 55 52 45 31 42 70 69 67 66 58 55 59 63 53 70 85 83 71 64 66 71 63 51 54 61 54 47 38 51 50 46 44 35 25 30 39 44 53 50 51 40 13 356 353 341 339
144 139 138 131 130 123 124 125 116 116 106 103 96 85 72 68 61 49 52 47 36 53 74 71 67 66 62 64 65 62 64 61 62 65 73 71 68 60 57 55 50 59 61 49 46 34 54 59 57 58 43 45 49 50 56 38 37 28 347 325 322 336 5
135 131 128 123 120 122 122 123 125 121 115 114 108 95 89 79 64 58 54 53 49 55 71 78 75 71 70 65 63 60 60 57 54 55 59 64 62 70 67 49 60 53 51 37 38 49 19 21 70 59 24 69 53 46 53 52 19 324 325 314 332 350 21
132 132 131 135 126 127 129 133 128 122 119 124 116 101 96 80 60 66 59 62 59 64 66 74 79 73 66 65 67 65 65 60 57 49 55 61 73 77 81 58 30 32 43 48 45 82 90 62 51 51 31 36 70 58 92 96 59 316 303 340 9 32 37
129 137 137 140 141 142 141 141 139 138 137 138 122 114 102 86 63 50 42 73 75 67 72 73 82 84 76 71 69 71 68 57 61 53 51 47 45 52 65 71 72 38 12 19 29 36 70 93 71 62 73 57 51 40 21 22 11 348 344 5 27 42 63